Date,TemperatureHighF,TemperatureAvgF,TemperatureLowF,DewpointHighF,DewpointAvgF,DewpointLowF,HumidityHigh,HumidityAvg,HumidityLow,PressureMaxIn,PressureMinIn,WindSpeedMaxMPH,WindSpeedAvgMPH,GustSpeedMaxMPH,PrecipitationSumIn
2013-1-1,32.9,27.1,14.4,6.0,-20.2,-32.4,32,5,1,29.52,29.38,0,0,0,0.00
2013-1-2,37.3,18.3,6.8,18.2,-9.7,-38.1,59,32,1,29.61,29.50,0,0,0,0.01
2013-1-3,35.5,23.8,9.7,20.4,2.5,-19.3,62,43,2,29.64,29.52,0,0,0,0.02
2013-1-4,36.2,26.8,17.1,21.1,4.2,-38.5,59,41,1,29.68,29.63,0,0,0,0.00
2013-1-5,46.4,31.1,18.4,30.0,-6.9,-32.7,58,20,1,29.66,29.46,0,0,0,0.01
2013-1-6,37.1,32.0,24.3,16.5,-2.5,-18.1,55,24,1,29.70,29.35,0,0,0,0.00
2013-1-7,41.8,28.5,16.2,27.7,0.8,-30.6,62,35,1,29.78,29.56,0,0,0,0.00
2013-1-8,49.1,34.9,23.6,32.7,8.5,-37.0,62,37,1,29.63,29.53,0,0,0,0.00
2013-1-9,54.9,42.5,29.2,39.9,14.3,-20.7,60,35,1,29.85,29.51,0,0,0,0.08
2013-1-10,45.2,35.8,26.1,28.9,-5.6,-23.1,60,16,1,29.85,29.38,0,0,0,0.07
2013-1-11,62.8,53.3,45.2,19.5,-1.4,-8.2,19,2,1,29.38,29.17,0,0,0,0.63
2013-1-12,72.2,55.1,47.0,53.6,2.9,-23.0,52,5,1,29.34,29.05,0,0,0,0.94
2013-1-13,57.6,38.0,23.2,1.4,-13.8,-25.4,1,1,1,29.56,29.00,0,0,0,1.12
2013-1-14,26.5,22.4,17.8,-14.2,-26.0,-29.5,17,2,1,29.79,29.55,0,0,0,0.00
2013-1-15,35.6,27.2,20.5,17.2,-15.2,-27.5,48,11,1,29.73,29.44,0,0,0,0.00
2013-1-16,41.9,30.6,23.4,25.8,-1.7,-25.3,55,26,1,29.44,29.31,0,0,0,0.00
2013-1-17,44.3,33.5,21.2,28.9,4.7,-20.8,60,34,1,29.76,29.43,0,0,0,0.00
2013-1-18,45.0,30.9,17.1,24.7,7.4,-29.2,58,40,1,29.83,29.48,0,0,0,0.00
2013-1-19,59.2,47.0,38.7,35.4,29.4,23.4,58,51,39,29.49,29.21,0,0,0,0.00
2013-1-20,45.9,29.1,22.5,27.1,15.1,10.9,61,56,43,29.63,29.26,0,0,0,0.01
2013-1-21,23.0,16.1,8.8,11.5,4.2,-2.2,62,59,43,29.60,29.47,0,0,0,0.00
2013-1-22,22.1,11.9,4.1,5.0,-0.2,-4.8,67,58,44,29.73,29.60,0,0,0,0.00
2013-1-23,23.4,18.1,8.8,12.4,5.6,-1.0,64,58,46,29.68,29.44,0,0,0,0.00
2013-1-24,31.0,20.8,14.0,14.0,5.6,-31.0,64,53,9,29.94,29.50,0,0,0,0.00
2013-1-25,28.4,23.4,18.4,17.1,7.2,-28.0,63,52,2,29.73,29.38,0,0,0,0.01
2013-1-26,37.8,24.2,16.7,22.7,9.0,-13.1,63,53,24,29.77,29.45,0,0,0,0.02
2013-1-27,38.2,28.4,17.3,22.8,2.6,-29.1,59,36,1,29.75,29.40,0,0,0,0.28
2013-1-28,52.6,47.3,38.0,-2.5,-6.6,-13.8,1,1,1,29.44,29.32,0,0,0,0.14
2013-1-29,63.4,56.2,50.0,6.0,0.3,-4.5,1,1,1,29.35,28.79,0,0,0,0.00
2013-1-30,65.2,46.8,29.3,6.9,-6.9,-20.5,15,1,1,28.97,28.63,0,0,0,0.87
2013-1-31,30.8,23.7,10.8,13.6,-2.5,-35.9,63,35,1,29.46,28.97,0,0,0,0.00